Rochelle, IL

2:56 PM CDT on August 28, 2016 (GMT -0500)
Rochelle

Weather History for KRPJ - February, 2014

Change the Weather History Date:

Wednesday, February 26, 2014

  Actual Average (KRFD) Record (KRFD)
Temperature  
Mean Temperature 7 °F 30 °F  
Max Temperature 17 °F 38 °F 62 °F (2000)
Min Temperature -3 °F 21 °F -8 °F (2015)
Degree Days  
Heating Degree Days 58 35  
Month to date heating degree days 1024  
Since 1 July heating degree days 4933  
Cooling Degree Days 0 0  
Month to date cooling degree days 0  
Year to date cooling degree days 0  
Moisture  
Dew Point -2 °F    
Average Humidity 69    
Maximum Humidity 78    
Minimum Humidity 56    
Precipitation  
Precipitation 0.00 in 0.06 in 1.31 in (2009)
Month to date precipitation 1.29  
Year to date precipitation 2.66  
Snow  
Snow 0.00 in 0.30 in 8.00 in (1912)
Month to date snowfall 7.3  
Since 1 July snowfall 30.6  
Snow Depth -    
Sea Level Pressure  
Sea Level Pressure 30.02 in    
Wind  
Wind Speed 15 mph (WSW)    
Max Wind Speed 29 mph    
Max Gust Speed 32 mph    
Visibility 10 miles    
Events      
T = Trace of Precipitation, MM = Missing Value Source: NWS Daily Summary

Daily Weather History Graph

Daily Weather History Graph

Search for Another Location

Airport or City:

Trip Planner

Search our weather history database for the weather conditions in past years. The results will help you decide how hot, cold, wet, or windy it might be!

Date:

Astronomy

Feb. 26, 2014 Rise Set
Actual Time 6:35 AM CST 5:43 PM CST
Civil Twilight 6:07 AM CST 6:11 PM CST
Nautical Twilight 5:35 AM CST 6:43 PM CST
Astronomical Twilight 5:03 AM CST 7:15 PM CST
Moon 4:24 AM CST (2/26) 2:55 PM CST (2/26)
Length of Visible Light 12h 03m
Length of Day
11h 07m
Waning Crescent, 10% of the Moon is Illuminated
Feb 26
Waning Crescent
Mar 1
New
Mar 8
First Quarter
Mar 16
Full
Mar 23
Last Quarter

Hourly Weather History & Observations

Time (CST) Temp. Windchill Dew Point Humidity Pressure Visibility Wind Dir Wind Speed Gust Speed Precip Events Conditions
12:15 AM 2.3 °F -14.2 °F -5.4 °F 70% 30.25 in 10.0 mi NW 11.5 mph - N/A   Clear
12:35 AM 2.3 °F -14.2 °F -5.4 °F 70% 30.26 in 10.0 mi NW 11.5 mph - N/A   Clear
12:55 AM 1.9 °F -14.7 °F -5.8 °F 70% 30.26 in 10.0 mi NW 11.5 mph - N/A   Clear
1:10 AM 1.4 °F -15.3 °F -6.0 °F 71% 30.26 in 10.0 mi WNW 11.5 mph - N/A   Clear
1:35 AM 1.0 °F -16.6 °F -6.2 °F 72% 30.27 in 10.0 mi WNW 12.7 mph - N/A   Clear
1:55 AM 0.9 °F -16.0 °F -6.2 °F 72% 30.27 in 10.0 mi WNW 11.5 mph - N/A   Clear
2:15 AM 0.5 °F -17.3 °F -6.3 °F 73% 30.27 in 10.0 mi WNW 12.7 mph - N/A   Clear
2:35 AM 0.3 °F -17.5 °F -6.2 °F 74% 30.26 in 10.0 mi WNW 12.7 mph - N/A   Clear
2:55 AM -0.0 °F -18.0 °F -6.3 °F 75% 30.26 in 10.0 mi WNW 12.7 mph - N/A   Clear
3:15 AM -0.0 °F -18.0 °F -6.7 °F 73% 30.25 in 10.0 mi WNW 12.7 mph - N/A   Clear
3:35 AM -0.4 °F -18.4 °F -6.7 °F 75% 30.25 in 10.0 mi WNW 12.7 mph - N/A   Clear
3:55 AM -0.6 °F -17.8 °F -6.7 °F 75% 30.25 in 10.0 mi West 11.5 mph - N/A   Clear
4:15 AM -1.1 °F -18.5 °F -6.9 °F 77% 30.24 in 10.0 mi West 11.5 mph - N/A   Clear
4:35 AM -1.3 °F -18.7 °F -6.9 °F 77% 30.25 in 10.0 mi West 11.5 mph - N/A   Clear
4:55 AM -1.5 °F -19.0 °F -7.2 °F 77% 30.25 in 10.0 mi WNW 11.5 mph - N/A   Clear
5:15 AM -1.7 °F -19.2 °F -7.6 °F 76% 30.25 in 10.0 mi West 11.5 mph - N/A   Clear
5:35 AM -2.2 °F -19.9 °F -8.0 °F 76% 30.25 in 10.0 mi West 11.5 mph - N/A   Clear
5:50 AM -2.4 °F -19.2 °F -8.1 °F 76% 30.24 in 10.0 mi West 10.4 mph - N/A   Clear
6:15 AM -2.9 °F -21.6 °F -8.5 °F 77% 30.24 in 10.0 mi West 12.7 mph - N/A   Clear
6:35 AM -3.1 °F -21.0 °F -8.5 °F 78% 30.23 in 10.0 mi West 11.5 mph - N/A   Clear
6:55 AM -3.1 °F -20.1 °F -8.5 °F 78% 30.22 in 10.0 mi West 10.4 mph - N/A   Clear
7:15 AM -2.6 °F -21.1 °F -8.5 °F 76% 30.22 in 10.0 mi West 12.7 mph - N/A   Clear
7:35 AM -2.2 °F -21.5 °F -8.5 °F 75% 30.22 in 10.0 mi West 13.8 mph - N/A   Clear
7:55 AM -1.8 °F -21.7 °F -8.9 °F 72% 30.22 in 10.0 mi West 15.0 mph - N/A   Clear
8:15 AM -0.9 °F -18.3 °F -8.3 °F 71% 30.21 in 10.0 mi West 11.5 mph - N/A   Clear
8:35 AM 0.1 °F -16.9 °F -8.0 °F 69% 30.21 in 10.0 mi West 11.5 mph - N/A   Clear
8:55 AM 1.0 °F -16.6 °F -7.6 °F 67% 30.21 in 10.0 mi WSW 12.7 mph - N/A   Clear
9:15 AM 1.8 °F -14.0 °F -7.4 °F 65% 30.20 in 10.0 mi West 10.4 mph - N/A   Clear
9:35 AM 2.3 °F -15.0 °F -6.9 °F 66% 30.19 in 10.0 mi WSW 12.7 mph - N/A   Clear
9:55 AM 1.9 °F -17.5 °F -6.3 °F 68% 30.18 in 10.0 mi WSW 16.1 mph - N/A   Clear
10:15 AM 2.1 °F -17.3 °F -5.6 °F 70% 30.17 in 10.0 mi WSW 16.1 mph - N/A   Clear
10:30 AM 3.0 °F -16.7 °F -5.3 °F 68% 30.17 in 10.0 mi WSW 17.3 mph - N/A   Clear
10:55 AM 4.5 °F -14.9 °F -4.0 °F 68% 30.15 in 10.0 mi WSW 17.3 mph 20.7 mph N/A   Clear
11:15 AM 5.5 °F -13.5 °F -3.5 °F 66% 30.14 in 10.0 mi WSW 17.3 mph - N/A   Clear
11:35 AM 5.9 °F -13.5 °F -2.9 °F 67% 30.12 in 10.0 mi WSW 18.4 mph 24.2 mph N/A   Clear
11:55 AM 7.2 °F -12.4 °F -2.2 °F 66% 30.10 in 10.0 mi WSW 19.6 mph - N/A   Clear
12:15 PM 7.3 °F -12.6 °F -3.6 °F 61% 30.09 in 10.0 mi WSW 20.7 mph - N/A   Clear
12:35 PM 8.4 °F -12.1 °F -2.4 °F 62% 30.07 in 10.0 mi WSW 23.0 mph 27.6 mph N/A   Clear
12:55 PM 8.8 °F -11.2 °F -1.1 °F 64% 30.05 in 10.0 mi WSW 21.9 mph - N/A   Clear
1:15 PM 9.1 °F -11.2 °F -1.5 °F 62% 30.03 in 10.0 mi WSW 23.0 mph - N/A   Clear
1:35 PM 10.2 °F -9.7 °F -0.2 °F 63% 30.01 in 10.0 mi SW 23.0 mph 28.8 mph N/A   Clear
1:55 PM 10.4 °F -9.1 °F -0.9 °F 60% 29.99 in 10.0 mi WSW 21.9 mph 28.8 mph N/A   Clear
2:15 PM 11.3 °F -8.7 °F -0.9 °F 58% 29.97 in 10.0 mi WSW 24.2 mph 29.9 mph N/A   Clear
2:35 PM 11.3 °F -8.7 °F -0.8 °F 58% 29.95 in 10.0 mi WSW 24.2 mph 28.8 mph N/A   Clear
2:55 PM 12.0 °F -7.7 °F -0.8 °F 57% 29.94 in 10.0 mi WSW 24.2 mph - N/A   Clear
3:15 PM 12.2 °F -7.1 °F -0.8 °F 56% 29.92 in 10.0 mi WSW 23.0 mph 32.2 mph N/A   Clear
3:35 PM 12.6 °F -6.6 °F 0.1 °F 58% 29.90 in 10.0 mi WSW 23.0 mph - N/A   Scattered Clouds
3:55 PM 12.0 °F -8.5 °F -0.2 °F 58% 29.88 in 10.0 mi WSW 26.5 mph 32.2 mph N/A   Scattered Clouds
4:15 PM 12.4 °F -8.0 °F 0.9 °F 60% 29.86 in 10.0 mi SW 26.5 mph - N/A   Clear
4:35 PM 12.7 °F -8.2 °F 1.6 °F 61% 29.85 in 10.0 mi WSW 28.8 mph - N/A   Scattered Clouds
4:55 PM 12.9 °F -6.9 °F 1.6 °F 61% 29.84 in 10.0 mi WSW 25.3 mph - N/A   Mostly Cloudy
5:15 PM 13.3 °F -4.4 °F 2.3 °F 62% 29.82 in 10.0 mi SW 19.6 mph 31.1 mph N/A   Overcast
5:35 PM 12.9 °F -5.7 °F 2.3 °F 63% 29.81 in 10.0 mi SW 21.9 mph 27.6 mph N/A   Mostly Cloudy
5:55 PM 12.2 °F -5.3 °F 2.3 °F 65% 29.79 in 10.0 mi SW 18.4 mph 25.3 mph N/A   Scattered Clouds
6:15 PM 12.0 °F -5.1 °F 2.8 °F 67% 29.79 in 10.0 mi SW 17.3 mph - N/A   Clear
6:35 PM 12.0 °F -4.0 °F 3.0 °F 67% 29.78 in 10.0 mi SW 15.0 mph - N/A   Clear
6:55 PM 12.0 °F -4.0 °F 3.2 °F 68% 29.78 in 10.0 mi SW 15.0 mph - N/A   Scattered Clouds
7:15 PM 12.2 °F -3.7 °F 3.7 °F 69% 29.76 in 10.0 mi SW 15.0 mph - N/A   Mostly Cloudy
7:35 PM 12.2 °F -3.1 °F 3.9 °F 69% 29.75 in 10.0 mi SW 13.8 mph - N/A   Scattered Clouds
7:55 PM 12.7 °F -3.6 °F 4.5 °F 70% 29.74 in 10.0 mi SW 16.1 mph - N/A   Mostly Cloudy
8:15 PM 12.7 °F -3.6 °F 4.5 °F 70% 29.73 in 10.0 mi SW 16.1 mph - N/A   Scattered Clouds
8:35 PM 13.1 °F -2.6 °F 5.0 °F 70% 29.72 in 10.0 mi SW 15.0 mph - N/A   Mostly Cloudy
8:55 PM 13.8 °F -2.2 °F 5.9 °F 71% 29.71 in 10.0 mi SW 16.1 mph - N/A   Overcast
9:15 PM 14.7 °F -0.5 °F 6.6 °F 70% 29.70 in 10.0 mi SW 15.0 mph - N/A   Overcast
9:35 PM 15.4 °F -1.6 °F 7.2 °F 70% 29.70 in 10.0 mi WSW 19.6 mph - N/A   Overcast
9:55 PM 15.4 °F -1.1 °F 7.3 °F 70% 29.69 in 10.0 mi WSW 18.4 mph - N/A   Mostly Cloudy
10:15 PM 15.1 °F -0.6 °F 7.5 °F 72% 29.68 in 10.0 mi WSW 16.1 mph - N/A   Scattered Clouds
10:35 PM 14.9 °F -0.3 °F 7.7 °F 73% 29.68 in 10.0 mi West 15.0 mph - N/A   Clear
10:55 PM 16.0 °F -1.3 °F 8.4 °F 72% 29.67 in 10.0 mi West 20.7 mph 25.3 mph N/A   Clear
11:15 PM 17.2 °F -0.4 °F 8.6 °F 69% 29.67 in 10.0 mi West 23.0 mph 27.6 mph N/A   Scattered Clouds
11:35 PM 17.1 °F 0.1 °F 9.0 °F 71% 29.67 in 10.0 mi West 20.7 mph - N/A   Mostly Cloudy
11:55 PM 16.7 °F -1.1 °F 8.6 °F 70% 29.68 in 10.0 mi WNW 23.0 mph 31.1 mph N/A   Scattered Clouds